AEE7TI LGAV-LATI

Flight info

Callsign AEE7TI
Flight time 1h 2m
Altitude 28000
Route KOR UL53 IXONI DCT YNN UL604 DIMIS DCT ADDER DCT ELBAK
Aircraft A320/M-SDE3FGHIRWY/LB1

Departure

Time 2026-04-30 19:56
Airport Athens Eleftherios Venizelos International Airport (LGAV)

Arrival

Time 2026-04-30 20:58
Airport Tirana International Airport Mother Teresa (LATI)
Time Latitude Longitude Altitude Speed Heading
2026-04-30 19:26 37.94089 23.95415 300 ft 0 kts 218°
2026-04-30 19:32 37.94089 23.95416 283 ft 0 kts 218°
2026-04-30 19:41 37.94097 23.95423 300 ft 4 kts 218°
2026-04-30 19:41 37.94116 23.95442 301 ft 1 kts 218°
2026-04-30 19:41 37.94134 23.95461 300 ft 4 kts 224°
2026-04-30 19:41 37.94153 23.95485 303 ft 4 kts 218°
2026-04-30 19:42 37.94169 23.95497 300 ft 4 kts 141°
2026-04-30 19:42 37.94183 23.95475 301 ft 2 kts 127°
2026-04-30 19:42 37.94184 23.95473 300 ft 2 kts 127°
2026-04-30 19:49 37.94180 23.95480 299 ft 2 kts 127°
2026-04-30 19:49 37.94131 23.95562 299 ft 9 kts 127°
2026-04-30 19:49 37.94082 23.95640 299 ft 14 kts 128°
2026-04-30 19:50 37.94044 23.95699 297 ft 5 kts 130°
2026-04-30 19:50 37.93958 23.95728 285 ft 24 kts 186°
2026-04-30 19:50 37.93822 23.95610 287 ft 25 kts 244°
2026-04-30 19:50 37.93754 23.95424 299 ft 22 kts 245°
2026-04-30 19:51 37.93651 23.95285 299 ft 23 kts 216°
2026-04-30 19:51 37.93518 23.95168 300 ft 24 kts 216°
2026-04-30 19:51 37.93383 23.95041 300 ft 22 kts 214°
2026-04-30 19:51 37.93256 23.94918 301 ft 24 kts 221°
2026-04-30 19:52 37.93124 23.94783 302 ft 25 kts 217°
2026-04-30 19:52 37.92980 23.94645 300 ft 27 kts 217°
2026-04-30 19:52 37.92827 23.94499 303 ft 28 kts 217°
2026-04-30 19:52 37.92666 23.94346 303 ft 29 kts 217°
2026-04-30 19:53 37.92566 23.94297 306 ft 13 kts 157°
2026-04-30 19:53 37.92505 23.94369 307 ft 11 kts 128°
2026-04-30 19:53 37.92495 23.94461 309 ft 12 kts 54°
2026-04-30 19:53 37.92553 23.94515 307 ft 0 kts 37°
2026-04-30 19:55 37.92560 23.94522 306 ft 5 kts 37°
2026-04-30 19:55 37.92735 23.94686 302 ft 65 kts 36°
2026-04-30 19:55 37.93276 23.95185 296 ft 123 kts 36°
2026-04-30 19:55 37.94084 23.95953 297 ft 164 kts 36°
2026-04-30 19:56 37.94976 23.96769 1059 ft 147 kts 33°
2026-04-30 19:56 37.95804 23.97432 1718 ft 139 kts 36°
2026-04-30 19:56 37.96589 23.98182 2022 ft 148 kts 38°
2026-04-30 19:56 37.97454 23.99049 2147 ft 168 kts 39°
2026-04-30 19:57 37.98426 24.00023 2292 ft 187 kts 38°
2026-04-30 19:57 37.99486 24.01076 2425 ft 204 kts 38°
2026-04-30 19:57 38.00648 24.02218 2585 ft 219 kts 38°
2026-04-30 19:57 38.01900 24.03442 2797 ft 233 kts 38°
2026-04-30 19:58 38.03205 24.04712 3157 ft 241 kts 37°
2026-04-30 19:58 38.04573 24.06036 3532 ft 251 kts 37°
2026-04-30 19:58 38.05984 24.07396 3995 ft 257 kts 36°
2026-04-30 19:58 38.07418 24.08777 4509 ft 261 kts 36°
2026-04-30 19:59 38.08765 24.10385 4806 ft 276 kts 57°
2026-04-30 19:59 38.09390 24.12705 5147 ft 284 kts 87°
2026-04-30 19:59 38.07996 24.17187 6061 ft 281 kts 142°
2026-04-30 20:00 38.06317 24.18369 6513 ft 277 kts 169°
2026-04-30 20:00 38.04421 24.18472 6933 ft 272 kts 195°
2026-04-30 20:00 38.02721 24.17520 7349 ft 268 kts 220°
2026-04-30 20:00 38.01531 24.15734 7772 ft 266 kts 244°
2026-04-30 20:01 37.99862 24.11056 8722 ft 269 kts 247°
2026-04-30 20:01 37.99352 24.09618 9021 ft 270 kts 247°
2026-04-30 20:01 37.98575 24.07442 9433 ft 271 kts 247°
2026-04-30 20:02 37.97007 24.03065 10191 ft 276 kts 248°
2026-04-30 20:02 37.96195 24.00800 10322 ft 286 kts 248°
2026-04-30 20:03 37.94500 23.96078 10556 ft 301 kts 247°
2026-04-30 20:03 37.93625 23.93644 10667 ft 306 kts 247°
2026-04-30 20:03 37.92733 23.91168 10823 ft 310 kts 247°
2026-04-30 20:03 37.91835 23.88680 11002 ft 312 kts 247°
2026-04-30 20:04 37.90954 23.86239 11192 ft 313 kts 247°
2026-04-30 20:04 37.90022 23.83663 11393 ft 314 kts 248°
2026-04-30 20:04 37.89294 23.81067 11557 ft 312 kts 258°
2026-04-30 20:05 37.89118 23.75610 11920 ft 312 kts 274°
2026-04-30 20:05 37.89266 23.72864 12056 ft 312 kts 274°
2026-04-30 20:05 37.89540 23.67486 12042 ft 303 kts 274°
2026-04-30 20:06 37.89670 23.64845 11742 ft 298 kts 274°
2026-04-30 20:06 37.89801 23.62233 10504 ft 296 kts 274°
2026-04-30 20:06 37.89932 23.59654 9457 ft 288 kts 274°
2026-04-30 20:06 37.90052 23.57213 8816 ft 268 kts 274°
2026-04-30 20:07 37.90165 23.54887 7941 ft 262 kts 274°
2026-04-30 20:07 37.90278 23.52578 7221 ft 263 kts 273°
2026-04-30 20:07 37.90504 23.47984 7421 ft 265 kts 273°
2026-04-30 20:08 37.90619 23.45645 8316 ft 266 kts 274°
2026-04-30 20:08 37.90734 23.43295 9176 ft 269 kts 274°
2026-04-30 20:08 37.90850 23.40922 10039 ft 271 kts 273°
2026-04-30 20:08 37.90971 23.38470 10407 ft 290 kts 273°
2026-04-30 20:09 37.91098 23.35870 10766 ft 305 kts 273°
2026-04-30 20:09 37.91225 23.33159 11407 ft 311 kts 273°
2026-04-30 20:09 37.91488 23.27630 12824 ft 317 kts 273°
2026-04-30 20:10 37.91749 23.22005 14177 ft 323 kts 273°
2026-04-30 20:10 37.91883 23.19144 14790 ft 326 kts 273°
2026-04-30 20:10 37.92018 23.16271 15401 ft 328 kts 273°
2026-04-30 20:11 37.92290 23.10448 16623 ft 333 kts 273°
2026-04-30 20:11 37.92422 23.07544 17261 ft 335 kts 273°
2026-04-30 20:11 37.92555 23.04590 17889 ft 337 kts 273°
2026-04-30 20:12 37.92820 22.98626 18973 ft 342 kts 274°
2026-04-30 20:12 37.93163 22.95620 19486 ft 346 kts 283°
2026-04-30 20:12 37.93911 22.92710 20014 ft 350 kts 291°
2026-04-30 20:13 37.95051 22.89970 20539 ft 354 kts 301°
2026-04-30 20:13 37.96466 22.87387 21062 ft 357 kts 302°
2026-04-30 20:13 37.98094 22.84987 21546 ft 364 kts 316°
2026-04-30 20:13 38.00139 22.83043 22019 ft 369 kts 320°
2026-04-30 20:14 38.02228 22.81134 22493 ft 371 kts 320°
2026-04-30 20:14 38.04333 22.79221 22974 ft 374 kts 320°
2026-04-30 20:14 38.06463 22.77289 23462 ft 376 kts 321°
2026-04-30 20:14 38.08573 22.75370 23895 ft 378 kts 320°
2026-04-30 20:15 38.10709 22.73423 24313 ft 380 kts 320°
2026-04-30 20:15 38.12861 22.71453 24741 ft 381 kts 320°
2026-04-30 20:15 38.15016 22.69472 25152 ft 383 kts 320°
2026-04-30 20:15 38.17176 22.67490 25556 ft 385 kts 321°
2026-04-30 20:16 38.19355 22.65496 25955 ft 386 kts 321°
2026-04-30 20:16 38.21537 22.63495 26351 ft 388 kts 321°
2026-04-30 20:16 38.23738 22.61476 26785 ft 390 kts 320°
2026-04-30 20:16 38.25940 22.59455 27186 ft 391 kts 320°
2026-04-30 20:17 38.28149 22.57429 27569 ft 393 kts 320°
2026-04-30 20:17 38.30374 22.55385 27947 ft 395 kts 320°
2026-04-30 20:17 38.32599 22.53332 28032 ft 395 kts 320°
2026-04-30 20:18 38.37038 22.49220 28057 ft 394 kts 320°
2026-04-30 20:18 38.41475 22.45111 28053 ft 394 kts 320°
2026-04-30 20:19 38.45874 22.41035 28063 ft 392 kts 320°
2026-04-30 20:19 38.50348 22.36884 28064 ft 408 kts 320°
2026-04-30 20:20 38.55053 22.32513 28072 ft 427 kts 320°
2026-04-30 20:20 38.59931 22.27967 28073 ft 436 kts 320°
2026-04-30 20:21 38.64822 22.23412 28070 ft 438 kts 320°
2026-04-30 20:21 38.69751 22.18819 28072 ft 437 kts 320°
2026-04-30 20:22 38.74669 22.14227 28071 ft 437 kts 320°
2026-04-30 20:22 38.79578 22.09622 28087 ft 437 kts 320°
2026-04-30 20:23 38.84482 22.05015 28078 ft 436 kts 320°
2026-04-30 20:23 38.89373 22.00413 28081 ft 436 kts 320°
2026-04-30 20:24 38.94270 21.95806 28085 ft 436 kts 320°
2026-04-30 20:24 38.99166 21.91195 28086 ft 436 kts 320°
2026-04-30 20:25 39.06460 21.84291 28090 ft 435 kts 319°
2026-04-30 20:26 39.13769 21.77360 28089 ft 434 kts 319°
2026-04-30 20:26 39.21032 21.70462 28095 ft 432 kts 319°
2026-04-30 20:27 39.30672 21.61272 28097 ft 432 kts 319°
2026-04-30 20:28 39.40330 21.52032 28101 ft 432 kts 319°
2026-04-30 20:30 39.52378 21.40449 28096 ft 432 kts 319°
2026-04-30 20:31 39.66791 21.26532 28092 ft 431 kts 318°
2026-04-30 20:32 39.74000 21.19554 27520 ft 417 kts 318°
2026-04-30 20:32 39.78494 21.15220 26984 ft 392 kts 318°
2026-04-30 20:33 39.80653 21.13126 26768 ft 382 kts 317°
2026-04-30 20:33 39.84862 21.09019 26256 ft 375 kts 317°
2026-04-30 20:33 39.86946 21.06979 26009 ft 374 kts 317°
2026-04-30 20:34 39.91098 21.02910 25520 ft 372 kts 317°
2026-04-30 20:34 39.95222 20.98877 25026 ft 369 kts 317°
2026-04-30 20:35 39.97273 20.96873 24797 ft 369 kts 317°
2026-04-30 20:35 39.99333 20.94857 24568 ft 368 kts 317°
2026-04-30 20:35 40.03407 20.90849 24114 ft 365 kts 317°
2026-04-30 20:36 40.05426 20.88854 23875 ft 364 kts 317°
2026-04-30 20:36 40.07415 20.86886 23668 ft 364 kts 317°
2026-04-30 20:36 40.11453 20.82896 23132 ft 362 kts 317°
2026-04-30 20:37 40.13461 20.80917 22863 ft 360 kts 317°
2026-04-30 20:37 40.15455 20.78948 22600 ft 359 kts 317°
2026-04-30 20:37 40.17442 20.76985 22329 ft 357 kts 317°
2026-04-30 20:37 40.19420 20.75032 22059 ft 355 kts 317°
2026-04-30 20:38 40.21389 20.73086 21808 ft 353 kts 317°
2026-04-30 20:38 40.23343 20.71147 21550 ft 352 kts 317°
2026-04-30 20:38 40.25295 20.69209 21299 ft 351 kts 317°
2026-04-30 20:39 40.29180 20.65345 20789 ft 349 kts 317°
2026-04-30 20:39 40.31115 20.63422 20533 ft 348 kts 317°
2026-04-30 20:39 40.33011 20.61531 20331 ft 346 kts 317°
2026-04-30 20:40 40.36825 20.57722 19775 ft 343 kts 318°
2026-04-30 20:40 40.38722 20.55831 19323 ft 341 kts 318°
2026-04-30 20:40 40.40605 20.53954 18898 ft 339 kts 318°
2026-04-30 20:41 40.44353 20.50212 18007 ft 336 kts 319°
2026-04-30 20:41 40.46207 20.48360 17523 ft 334 kts 319°
2026-04-30 20:41 40.48051 20.46518 17041 ft 332 kts 319°
2026-04-30 20:41 40.49885 20.44687 16573 ft 330 kts 320°
2026-04-30 20:42 40.51704 20.42866 16109 ft 328 kts 319°
2026-04-30 20:42 40.53518 20.41043 15670 ft 327 kts 319°
2026-04-30 20:42 40.57093 20.37447 14802 ft 324 kts 320°
2026-04-30 20:43 40.58883 20.35647 14365 ft 323 kts 321°
2026-04-30 20:43 40.60667 20.33857 13932 ft 322 kts 321°
2026-04-30 20:43 40.62448 20.32068 13444 ft 321 kts 321°
2026-04-30 20:44 40.65986 20.28504 12496 ft 319 kts 321°
2026-04-30 20:44 40.67743 20.26733 12038 ft 318 kts 321°
2026-04-30 20:44 40.71244 20.23186 11122 ft 316 kts 321°
2026-04-30 20:45 40.74709 20.19681 10244 ft 315 kts 321°
2026-04-30 20:45 40.76447 20.17928 9789 ft 315 kts 321°
2026-04-30 20:45 40.78187 20.16170 9304 ft 313 kts 322°
2026-04-30 20:46 40.83363 20.10923 7909 ft 312 kts 323°
2026-04-30 20:46 40.85081 20.09181 7461 ft 311 kts 323°
2026-04-30 20:47 40.87933 20.06281 6708 ft 311 kts 323°
2026-04-30 20:47 40.89654 20.04525 6251 ft 312 kts 323°
2026-04-30 20:48 40.93083 20.01027 5549 ft 308 kts 324°
2026-04-30 20:48 40.94769 19.99308 5264 ft 303 kts 324°
2026-04-30 20:48 40.96422 19.97619 4986 ft 298 kts 324°
2026-04-30 20:48 40.98047 19.95957 4792 ft 293 kts 324°
2026-04-30 20:49 40.99652 19.94316 4615 ft 287 kts 324°
2026-04-30 20:49 41.01210 19.92727 4422 ft 279 kts 324°
2026-04-30 20:49 41.02730 19.91176 4248 ft 272 kts 324°
2026-04-30 20:50 41.05664 19.88170 3894 ft 262 kts 324°
2026-04-30 20:50 41.07098 19.86699 3727 ft 260 kts 325°
2026-04-30 20:50 41.08505 19.85257 3628 ft 257 kts 325°
2026-04-30 20:50 41.09914 19.83812 3522 ft 247 kts 325°
2026-04-30 20:51 41.11207 19.82481 3401 ft 230 kts 326°
2026-04-30 20:51 41.13594 19.80022 2975 ft 207 kts 326°
2026-04-30 20:51 41.14726 19.78859 2786 ft 204 kts 326°
2026-04-30 20:52 41.15849 19.77708 2690 ft 205 kts 325°
2026-04-30 20:52 41.16986 19.76542 2703 ft 207 kts 325°
2026-04-30 20:52 41.19480 19.74950 2708 ft 194 kts 357°
2026-04-30 20:53 41.20801 19.74783 2742 ft 188 kts 358°
2026-04-30 20:53 41.22097 19.74614 2705 ft 186 kts 358°
2026-04-30 20:53 41.23385 19.74446 2703 ft 186 kts 358°
2026-04-30 20:54 41.25839 19.74114 2662 ft 165 kts 359°
2026-04-30 20:54 41.26943 19.73965 2544 ft 155 kts 359°
2026-04-30 20:54 41.27992 19.73825 2411 ft 148 kts 359°
2026-04-30 20:55 41.30001 19.73562 2157 ft 143 kts 359°
2026-04-30 20:55 41.30982 19.73433 2085 ft 141 kts 359°
2026-04-30 20:55 41.31952 19.73305 2024 ft 140 kts 359°
2026-04-30 20:56 41.33894 19.73058 1761 ft 140 kts 358°
2026-04-30 20:56 41.34855 19.72899 1502 ft 139 kts 355°
2026-04-30 20:56 41.36742 19.72627 921 ft 134 kts 358°
2026-04-30 20:57 41.37671 19.72519 781 ft 135 kts 356°
2026-04-30 20:57 41.38615 19.72392 584 ft 137 kts 355°
2026-04-30 20:57 41.39544 19.72287 395 ft 136 kts 358°
2026-04-30 20:58 41.41418 19.72052 132 ft 125 kts 354°
2026-04-30 20:58 41.42132 19.71959 122 ft 54 kts 355°
2026-04-30 20:58 41.42274 19.71920 123 ft 18 kts 307°
2026-04-30 20:58 41.42279 19.71749 131 ft 19 kts 264°
2026-04-30 20:59 41.42226 19.71501 132 ft 10 kts 254°
2026-04-30 20:59 41.42223 19.71478 132 ft 0 kts 260°
2026-04-30 21:13 41.42223 19.71479 132 ft 0 kts 260°